Hourly Data Report for July 15, 2002

SHERBROOKE A
QUEBEC

45°26'00.000" N
71°41'00.000" W
241.40 m
7028124
71610
YSC

Download Data

Hourly Data (July 2002)
Hourly Data Report for July 15, 2002
TIME
LST
Temp Definition
°C
Dew Point Definition
°C
Rel Hum Definition
%
Precip. Amount Definition
mm

Wind Dir Definition
10's deg

Wind Spd Definition
km/h
Visibility Definition
km
Stn Press Definition
kPa
Hmdx Definition


Wind Chill Definition


Weather Definition


00:00 18.9 14.6 76   22 6 15.0 98.23      
01:00 18.8 14.3 75   21 4 15.0 98.16      
02:00 19.0 14.3 74   25 7 15.0 98.11      
03:00 18.5 15.2 81   34 7 15.0 98.18      
04:00 17.2 15.4 89   10 4 9.7 98.16      
05:00 16.9 15.4 91     0 8.0 98.13      
06:00 17.0 16.1 94   1 4 3.7 98.09     Rain
07:00 16.6 15.9 96     0 2.4 98.17     Rain Showers, Fog
08:00 16.7 16.0 96   16 7 4.8 98.09     Rain Showers, Fog
09:00 18.4 17.4 94   24 9 16.1 98.13     Mostly Cloudy
10:00 19.3 17.6 90   25 9 19.3 98.13     Mostly Cloudy
11:00 21.4 18.1 81   25 13 24.1 98.08 27   Mostly Cloudy
12:00 22.2 17.8 76   27 9 24.1 98.05 28   Mostly Cloudy
13:00 23.6 15.6 61   26 26 24.1 98.00 28   Mostly Cloudy
14:00 22.9 15.0 61   28 20 24.1 98.02 27   Mainly Clear
15:00 23.5 13.5 53   29 20 24.1 98.03 27   Mainly Clear
16:00 23.1 14.4 58   30 17 24.1 98.03 27   Mostly Cloudy
17:00 21.4 13.8 62   28 15 15.0 98.04 25    
18:00 21.9 14.6 63   26 6 15.0 98.04 26    
19:00 18.1 14.8 81   29 4 15.0 98.06      
20:00 17.3 13.3 77   30 6 15.0 98.10      
21:00 17.2 10.4 64   32 9 15.0 98.16      
22:00 16.2 9.4 64   33 9 15.0 98.22      
23:00 14.8 9.7 71   3 6 15.0 98.27      

Notes on Data Quality.

Legend

  • E = Estimated
  • M = Missing
  • NA = Not Available*
  • [empty] = Indicates an unobserved value
Date modified: